STARLINK-11533, 62836

Orbit data source: Space-Track

STARLINK-11533, 62836 is a payload satellite owned by SpaceX/Seattle (US) in LEO that was launched on Mon, 27 Jan 2025 UTC via an FALCON 9 launch vehicle from the Air Force Eastern Test Range (AFETR). Payload-class satellites include a variety of spacecraft equipped with specific instruments for various scientific and technological missions. These include communications satellites like Starlink; space stations such as the ISS; scientific satellites like the Hubble; Earth observation satellites from companies like Planet Labs, Umbra, and HawkEye 360; GPS; miniature CubeSats for education and research; and military/defense satellites.

Loading next visibility...
Identifier
62836, 2025-019H
Orbit
LEO
Country
Flag of USUS
Related business
Manufacturer
SpaceX/Seattle
Mission
Operational Commercial Communications
Bus & Motor
STARLINK V2MD, Unknown motor
Mass
960 kg wet, ~910 kg dry
Launch date (UTC)
2025-01-27 (1 year ago)
Launch vehicle
FALCON 9
Launch site
Air Force Eastern Test Range (AFETR)
Object type
Payload
Rocket body
Debris
Shape & HBR
Box + 2 Pan, 18.1 m
Radar Cross Section
36.964 m², Large (>1 m²)

Expand to show TLE details & history
Last TLE update: 14 hours ago

TLE from 14 hours ago
0 STARLINK-11533
1 62836U 25019H   26036.28655923  .00331500  00000-0  24784-2 0  9998
2 62836  42.9991 141.3817 0001766 313.6887  46.3834 15.70905790 58781
Epoch: 2026-02-05T06:52Z
TLE epoch observation values (Epoch: 2026-02-05T06:52:38.717Z)
Latitude
-0.00003°
Longitude
-97.22061°
Altitude
355.258 km
Speed
7.698 km/s
True Right ascension
09h 25m 31s
True Declination
0° 00' 00"
Sunlit
Object was in full shadow at epoch
Visualization orbit readout
Latitude
Unknown
Longitude
Unknown
Altitude
Unknown
Speed
Unknown
Apparent Right ascension
Unknown
Apparent Declination
Unknown
Sunlit
N/A
Visualization observer readout
Local Sidereal Time
23:08:53
Azimuth
Unknown
Elevation
Unknown
Doppler factor
Unknown
Orbital elements
Apogee altitude
359.478 km
Perigee altitude
357.099 km
Semi-major axis
6,736.426 km
Eccentricity
0.00018
Inclination
42.9991°
RAAN
141.3817°
Arg. of periapsis
313.6887°
True anomaly
46.39805°
Mean anomaly
46.3834°
Eccentric anomaly
46.39073°
Mean motion
3.92554 °/min
Orbital period
91.71 mins
BSTAR
0.0024784
Loading maneuver chart data...
Computing Atmospheric mass density...
Loading historical data...
Loading historical data...
Loading historical data...
Loading historical data...
Loading historical data...
Loading historical data...
Loading historical data...

Documentation

Showing up to 5 results
|